Regional Weather Roundup
Issued by NWS Little Rock, AR

Home | Current Version | Previous Version | Graphics & Text | Print | Product List | Glossary On
Versions: 1 2 3 4 5 6 7 8 9 10 11 12 13 14 15 16 17 18 19 20 21 22 23 24 25 26 27 28 29 30 31 32 33 34 35 36 37 38 39 40 41 42 43 44 45 46 47 48 49 50
000
ASUS44 KLZK 272005
RWRLZK

WEATHER ROUNDUP FOR ARKANSAS
NATIONAL WEATHER SERVICE LITTLE ROCK AR
200 PM CST MON FEB 27 2017

NOTE: "FAIR" INDICATES FEW OR NO CLOUDS BELOW 12,000 FEET WITH NO
SIGNIFICANT WEATHER AND/OR OBSTRUCTIONS TO VISIBILITY.

ARZ001-003-010-029-272100-
NORTHWEST ARKANSAS

CITY           SKY/WX    TMP DP  RH WIND       PRES   REMARKS
FAYETTEVILLE   PTSUNNY   66  53  63 S14G28    29.96F
FORT SMITH     CLOUDY    69  51  52 E10G22    29.95F
HARRISON       PTSUNNY   68  47  46 SE15G23   29.98F
BENTONVILLE    CLOUDY    64  50  59 S10       29.95F
ROGERS         CLOUDY    64  49  57 SE10      29.95F
SILOAM SPGS    MOSUNNY   66  52  59 S18       29.94F
HIGHFILL       CLOUDY    65  52  62 S15       29.94F
SPRINGDALE     CLOUDY    66  54  63 S12G23    29.97F
$$

ARZ004-005-016-272100-
NORTH CENTRAL ARKANSAS

CITY           SKY/WX    TMP DP  RH WIND       PRES   REMARKS
BATESVILLE     CLOUDY    57  48  72 S7        30.08F
FLIPPIN        MOSUNNY   64  45  48 SE8       29.98F
$$

ARZ040-041-272100-
WEST CENTRAL ARKANSAS

CITY           SKY/WX    TMP DP  RH WIND       PRES   REMARKS
MENA           PTSUNNY   68  59  73 SE7       29.99F
MOUNT IDA      CLOUDY    62  54  74 E6        30.00F
$$

ARZ009-017-025-026-028-272100-
NORTHEAST ARKANSAS

CITY           SKY/WX    TMP DP  RH WIND       PRES   REMARKS
CORNING        MOCLDY    63  52  67 SE9       30.08F
JONESBORO      CLOUDY    59  52  77 SE10      30.08F
NEWPORT        CLOUDY    57  51  80 S14       30.09F
WALNUT RIDGE   CLOUDY    61  48  63 S9        30.08F
BLYTHEVILLE    MOSUNNY   65  50  58 SE8       30.08F
$$

ARZ022-023-033-042-044-272100-
CENTRAL ARKANSAS

CITY           SKY/WX    TMP DP  RH WIND       PRES   REMARKS
LITTLE ROCK    CLOUDY    56  54  93 SE9       30.08F
N LITTLE ROCK    N/A     54  51  92 SE7       30.09F
JACKSONVILLE   CLOUDY    56  53  88 SE7       30.08F
SEARCY         CLOUDY    56  52  86 SE5       30.10F
HOT SPRINGS    CLOUDY    58  55  90 E7        30.05F
RUSSELLVILLE   CLOUDY    57  50  77 E7        30.03F
CLINTON        CLOUDY    59  50  72 S5        30.05F
$$

ARZ036-272100-
EAST ARKANSAS

CITY           SKY/WX    TMP DP  RH WIND       PRES   REMARKS
WEST MEMPHIS   SUNNY     63  52  67 S13       30.08F
$$

ARZ050-053-066-070-073-272100-
SOUTHWEST ARKANSAS

CITY           SKY/WX    TMP DP  RH WIND       PRES   REMARKS
ARKADELPHIA    CLOUDY    62  57  83 S7        30.06F
CAMDEN         RAIN      55  54  94 S3        30.09R
TEXARKANA      CLOUDY    59  58  96 SE12G21   30.01F
EL DORADO      CLOUDY    58  56  93 E7        30.06F
DE QUEEN       CLOUDY    60  57  89 SE9       29.98F
$$

ARZ056-057-069-272100-
SOUTHEAST ARKANSAS

CITY           SKY/WX    TMP DP  RH WIND       PRES   REMARKS
PINE BLUFF     CLOUDY    62  55  77 SE13      30.08F
STUTTGART      CLOUDY    57  46  67 SE12      30.09F
MONTICELLO     TSTM      55  53  93 SE6       30.09F

$$





USA.gov is the U.S. government's official web portal to all federal, state and local government web resources and services.